Retour au catalogue

ATLAS 28E DEB

ActifPO
NORAD 20575·DEBRIS·🇺🇸 United States

Lancé Apr 11, 1990 depuis Vandenberg Space Force Base

Loading…

Prochains Passages (prochaines 24 heures)

TLE

FraisSource: Space-Track

Époque: Sep 14, 2026, 01:43 UTC

1 20575U 90031G   26257.07191265  .00003321  00000-0  24832-3 0  9996
2 20575  90.3423 302.3589 0026805  61.9187 298.4754 15.02320233408434

Suivez ATLAS 28E DEB en temps réel avec AllMySat

Download on the App Store